Weather History for Chipley, FL

Change the Weather History Date:

Monday, December 31, 2012

  Actual Average (KMAI) Record (KMAI)
Temperature  
Mean Temperature 53 °F 50 °F  
Max Temperature 62 °F 61 °F 77 °F (2010)
Min Temperature 44 °F 39 °F 21 °F (2000)
Degree Days  
Heating Degree Days 12    
Month to date heating degree days  
Since 1 July heating degree days  
Cooling Degree Days 0    
Month to date cooling degree days  
Year to date cooling degree days  
Growing Degree Days 3 (Base 50)    
Moisture  
Dew Point 43 °F    
Average Humidity 68    
Maximum Humidity 88    
Minimum Humidity 54    
Precipitation  
Precipitation 0.00 in 0.12 in 1.97 in (2006)
Month to date precipitation 3.91  
Year to date precipitation 53.58  
Sea Level Pressure  
Sea Level Pressure 30.22 in    
Wind  
Wind Speed 6 mph (ENE)    
Max Wind Speed 10 mph    
Max Gust Speed 17 mph    
Visibility 10 miles    
Events      
T = Trace of Precipitation, MM = Missing Value Source: NWS Daily Summary

Daily Weather History Graph

Daily Weather History Graph

Search for Another Location

Airport:

Trip Planner

Search our weather history database for the weather conditions in past years. The results will help you decide how hot, cold, wet, or windy it might be!

Date:

Astronomy

Dec. 31, 2012 Rise Set
Actual Time 6:39 AM CST 4:51 PM CST
Civil Twilight 6:13 AM CST 5:18 PM CST
Nautical Twilight 5:43 AM CST 5:48 PM CST
Astronomical Twilight 5:13 AM CST 6:17 PM CST
Moon 8:06 PM CST (12/31) 8:34 AM CST (12/31)
Length of Visible Light 11h 04m
Length of Day
10h 11m
Waning Gibbous, 90% of the Moon is Illuminated
Dec 31
Waning Gibbous
Jan 4
Last Quarter
Jan 11
New
Jan 18
First Quarter
Jan 26
Full

Hourly Weather History & Observations

Time (CST) Temp. Windchill Dew Point Humidity Pressure Visibility Wind Dir Wind Speed Gust Speed Precip Events Conditions
12:15 AM 46.4 °F 44.3 °F 33.8 °F 62% 30.34 in 10.0 mi ENE 4.6 mph - N/A   Clear
12:35 AM 46.4 °F 43.5 °F 33.8 °F 62% 30.34 in 10.0 mi NNE 5.8 mph - N/A   Clear
12:55 AM 46.4 °F 44.3 °F 33.8 °F 62% 30.33 in 10.0 mi NE 4.6 mph - N/A   Clear
1:15 AM 44.6 °F 42.2 °F 33.8 °F 66% 30.33 in 10.0 mi NE 4.6 mph - N/A   Clear
1:35 AM 46.4 °F 43.5 °F 33.8 °F 62% 30.32 in 10.0 mi NE 5.8 mph - N/A   Clear
1:55 AM 46.4 °F 42.4 °F 33.8 °F 62% 30.32 in 10.0 mi NE 8.1 mph - N/A   Clear
2:15 AM 46.4 °F 43.5 °F 33.8 °F 62% 30.32 in 10.0 mi NE 5.8 mph - N/A   Clear
2:35 AM 44.6 °F 40.2 °F 33.8 °F 66% 30.32 in 10.0 mi NE 8.1 mph - N/A   Mostly Cloudy
2:55 AM 46.4 °F 42.4 °F 33.8 °F 62% 30.32 in 10.0 mi NE 8.1 mph - N/A   Overcast
3:15 AM 46.4 °F 42.9 °F 35.6 °F 66% 30.33 in 10.0 mi NNE 6.9 mph - N/A   Overcast
3:35 AM 46.4 °F 43.5 °F 35.6 °F 66% 30.31 in 10.0 mi NE 5.8 mph - N/A   Overcast
3:55 AM 46.4 °F 41.9 °F 35.6 °F 66% 30.31 in 10.0 mi NE 9.2 mph - N/A   Overcast
4:15 AM 46.4 °F 42.9 °F 33.8 °F 62% 30.30 in 10.0 mi NE 6.9 mph - N/A   Overcast
4:35 AM 46.4 °F 42.9 °F 33.8 °F 62% 30.30 in 10.0 mi NE 6.9 mph - N/A   Overcast
4:55 AM 46.4 °F 42.9 °F 33.8 °F 62% 30.30 in 10.0 mi NNE 6.9 mph - N/A   Overcast
5:15 AM 46.4 °F 42.9 °F 33.8 °F 62% 30.29 in 10.0 mi NE 6.9 mph - N/A   Overcast
5:35 AM 46.4 °F 44.3 °F 32.0 °F 57% 30.30 in 10.0 mi NE 4.6 mph - N/A   Overcast
5:55 AM 46.4 °F 42.4 °F 32.0 °F 57% 30.30 in 10.0 mi NNE 8.1 mph - N/A   Overcast
6:15 AM 46.4 °F 42.4 °F 32.0 °F 57% 30.30 in 10.0 mi NE 8.1 mph - N/A   Overcast
6:55 AM 48.2 °F - 32.0 °F 54% 30.30 in 10.0 mi NE 8.1 mph - N/A   Overcast
7:15 AM 48.2 °F - 32.0 °F 54% 30.31 in 10.0 mi NE 4.6 mph - N/A   Overcast
7:35 AM 48.2 °F - 32.0 °F 54% 30.30 in 10.0 mi ENE 5.8 mph - N/A   Overcast
7:55 AM 48.2 °F - 33.8 °F 58% 30.30 in 10.0 mi NE 3.5 mph - N/A   Overcast
8:15 AM 48.2 °F - 32.0 °F 54% 30.30 in 10.0 mi ENE 4.6 mph - N/A   Overcast
8:35 AM 50.0 °F - 33.8 °F 54% 30.30 in 10.0 mi ENE 4.6 mph - N/A   Overcast
8:55 AM 50.0 °F - 33.8 °F 54% 30.31 in 10.0 mi ENE 4.6 mph - N/A   Overcast
9:15 AM 51.8 °F - 35.6 °F 54% 30.31 in 10.0 mi East 8.1 mph - N/A   Overcast
9:35 AM 51.8 °F - 37.4 °F 58% 30.31 in 10.0 mi ENE 4.6 mph - N/A   Overcast
9:55 AM 51.8 °F - 39.2 °F 62% 30.31 in 10.0 mi East 5.8 mph - N/A   Overcast
10:15 AM 51.8 °F - 39.2 °F 62% 30.30 in 10.0 mi East 8.1 mph - N/A   Overcast
10:35 AM 53.6 °F - 41.0 °F 62% 30.30 in 10.0 mi East 10.4 mph 17.3 mph N/A   Overcast
10:55 AM 53.6 °F - 41.0 °F 62% 30.29 in 10.0 mi East 6.9 mph - N/A   Overcast
11:15 AM 53.6 °F - 42.8 °F 67% 30.28 in 10.0 mi East 9.2 mph 16.1 mph N/A   Overcast
11:35 AM 53.6 °F - 42.8 °F 67% 30.26 in 10.0 mi East 9.2 mph - N/A   Overcast
11:55 AM 53.6 °F - 42.8 °F 67% 30.25 in 10.0 mi East 10.4 mph - N/A   Overcast
12:15 PM 53.6 °F - 44.6 °F 72% 30.23 in 10.0 mi East 10.4 mph - N/A   Overcast
12:35 PM 55.4 °F - 44.6 °F 67% 30.22 in 10.0 mi East 8.1 mph - N/A   Overcast
12:55 PM 55.4 °F - 44.6 °F 67% 30.20 in 10.0 mi East 10.4 mph - N/A   Overcast
1:15 PM 55.4 °F - 46.4 °F 72% 30.19 in 10.0 mi East 8.1 mph - N/A   Overcast
1:35 PM 57.2 °F - 46.4 °F 67% 30.17 in 10.0 mi East 8.1 mph - N/A   Overcast
1:55 PM 57.2 °F - 46.4 °F 67% 30.15 in 10.0 mi East 8.1 mph - N/A   Partly Cloudy
2:15 PM 59.0 °F - 48.2 °F 67% 30.15 in 9.0 mi East 6.9 mph - N/A   Clear
2:35 PM 60.8 °F - 48.2 °F 63% 30.14 in 10.0 mi East 5.8 mph - N/A   Clear
2:55 PM 60.8 °F - 48.2 °F 63% 30.14 in 10.0 mi East 4.6 mph - N/A   Clear
3:15 PM 60.8 °F - 50.0 °F 68% 30.14 in 10.0 mi East 4.6 mph - N/A   Clear
3:35 PM 62.6 °F - 51.8 °F 68% 30.14 in 10.0 mi Calm Calm - N/A   Clear
3:55 PM 62.6 °F - 51.8 °F 68% 30.15 in 10.0 mi Calm Calm - N/A   Partly Cloudy
4:15 PM 62.6 °F - 51.8 °F 68% 30.15 in 10.0 mi Calm Calm - N/A   Partly Cloudy
4:35 PM 60.8 °F - 51.8 °F 72% 30.16 in 10.0 mi ENE 4.6 mph - N/A   Partly Cloudy
4:55 PM 59.0 °F - 51.8 °F 77% 30.16 in 10.0 mi ENE 4.6 mph - N/A   Mostly Cloudy
5:15 PM 59.0 °F - 51.8 °F 77% 30.15 in 10.0 mi ENE 3.5 mph - N/A   Overcast
5:35 PM 59.0 °F - 51.8 °F 77% 30.16 in 10.0 mi NE 3.5 mph - N/A   Overcast
6:15 PM 59.0 °F - 51.8 °F 77% 30.15 in 10.0 mi East 3.5 mph - N/A   Overcast
6:35 PM 59.0 °F - 51.8 °F 77% 30.15 in 10.0 mi Calm Calm - N/A   Overcast
6:55 PM 59.0 °F - 51.8 °F 77% 30.15 in 10.0 mi East 5.8 mph - N/A   Overcast
7:15 PM 59.0 °F - 53.6 °F 82% 30.15 in 10.0 mi SE 4.6 mph - N/A   Overcast
7:35 PM 59.0 °F - 53.6 °F 82% 30.14 in 10.0 mi East 5.8 mph - N/A   Overcast
8:15 PM 59.0 °F - 53.6 °F 82% 30.13 in 10.0 mi SE 5.8 mph - N/A   Overcast
8:35 PM 59.0 °F - 53.6 °F 82% 30.12 in 10.0 mi SSE 8.1 mph - N/A   Mostly Cloudy
8:55 PM 59.0 °F - 53.6 °F 82% 30.12 in 8.0 mi SE 6.9 mph - N/A   Overcast
9:15 PM 59.0 °F - 55.4 °F 88% 30.11 in 10.0 mi SE 6.9 mph - N/A   Overcast
9:35 PM 60.8 °F - 55.4 °F 82% 30.10 in 9.0 mi ENE 3.5 mph - N/A   Scattered Clouds
9:55 PM 60.8 °F - 55.4 °F 82% 30.10 in 9.0 mi East 3.5 mph - N/A   Partly Cloudy
10:15 PM 60.8 °F - 55.4 °F 82% 30.10 in 10.0 mi SSE 4.6 mph - N/A   Clear
10:35 PM 60.8 °F - 55.4 °F 82% 30.10 in 9.0 mi South 8.1 mph - N/A   Clear
10:55 PM 60.8 °F - 55.4 °F 82% 30.10 in 7.0 mi SSE 6.9 mph - N/A   Clear
11:15 PM 60.8 °F - 55.4 °F 82% 30.09 in 7.0 mi South 6.9 mph - N/A   Clear
11:35 PM 60.8 °F - 55.4 °F 82% 30.07 in 5.0 mi South 8.1 mph - N/A   Partly Cloudy
11:55 PM 60.8 °F - 55.4 °F 82% 30.07 in 6.0 mi South 8.1 mph - N/A   Clear